www.pogodaiklimat.ru

ПОГОДА в Lu Shan

  • Прогноз погоды в Lu Shan
  • Монитор погоды в Lu Shan
  • Климат города

АРХИВ ПОГОДЫ в Lu Shan

Время (UTC), дата Ветер
(напр.,м/с)
 
Видим.   Явления Облачность Т
(С)
Тd
(С)
f
(%)
Тe
(С)
Тes
(С)
Комфортность P
(гПа)
Po
(гПа)
Тmin
(С)
Tmax
(С)
R
(мм)
S
(см)
03 10.01 В 4 6000 м слабый дождь ?/? +0.1 -1.0 92 -5 -5 1026.5 1027.0
06 10.01 В 3 17 км в посл. час переохл. осадки {дождь} [диам. гололёда 29 мм] 10/10 1000 м
[]
-1.6 -2.7 92 -7 -7 1024.9 1025.0 -1.6 7
09 10.01 В 6 28 км {дождь} 10/10 1000 м
[]
-2.0 -4.5 83 -9 -9 1025.6 1026.0
12 10.01 В 6 300 м туман {дождь} [диам. гололёда 29 мм] ?/? -2.2 -2.3 99 -10 -10 1027.5 1028.0 0.0
18 10.01 В 4 600 м в посл. час туман ?/? -2.1 -2.1 100 -8 -8 1030.0 890.7 +3.6
21 10.01 СВ 2 100 м туман ?/? -2.6 -2.6 100 -7 -7 1028.7 1029.0
00 11.01 В 2 500 м слабый дождь со снегом [диам. гололёда 30 мм] ?/? -1.9 -1.9 100 -6 -6 1030.3 1053.1 0.5
03 11.01 СВ 1 200 м слабый дождь {снег, туман} ?/? -0.3 -0.3 100 -3 -3 1029.8 1030.0
06 11.01 СВ 1 600 м слабый дождь {снег, туман} [диам. гололёда 30 мм] ?/? -0.1 -0.1 100 -2 -2 1026.9 1027.0 -2.9 7
09 11.01 С 4 100 м слабый переохл. дождь (гололёд) {туман} ?/? -1.4 -1.4 100 -7 -7 1028.1 1028.0
12 11.01 С 2 3400 м в посл. час дождь {туман} [диам. гололёда 27 мм] ?/? -1.5 -1.5 100 -6 -6 1027.9 1028.0 0.6
18 11.01 С 2 100 м туман ?/? -1.3 -1.3 100 -5 -5 1027.4 889.0 +0.4 3
21 11.01 СВ 2 100 м туман ?/? -1.3 -1.3 100 -5 -5 1026.0 1026.0
00 12.01 С 2 200 м слабый переохл. дождь (гололёд) [диам. гололёда 34 мм] ?/? -1.6 -1.6 100 -6 -6 1026.6 1027.0 3
03 12.01 С 2 100 м слабый переохл. дождь (гололёд) {туман} ?/? -1.2 -1.2 100 -5 -5 1027.6 1028.0
06 12.01 С 2 2100 м слабый дождь {туман} ?/? +0.1 +0.1 100 -4 -4 1024.7 1049.7 -1.9 3
09 12.01 С 2 9000 м в посл. час туман {дождь} ?/? -0.9 -0.9 100 -5 -5 1024.5 1025.0
12 12.01 С 2 17 км {дождь, туман} 10/10 1500 м
[]
-2.1 -2.5 97 -6 -6 1025.5 886.8 0.0
18 12.01 С 1 30 км ?/? -1.8 -5.8 74 -4 -4 1025.0 886.9 +0.1
21 12.01 С 2 18 км ?/? -3.1 -4.4 91 -7 -7 1025.4 1025.0
00 13.01 СВ 4 23 км [диам. гололёда 30 мм] ясно -2.4 -4.4 86 -8 -8 1026.3 1049.7
03 13.01 В 3 30 км ясно +1.2 -1.3 83 -2 +4 1026.7 1027.0
06 13.01 С 2 9000 м ясно +4.9 +0.5 73 +2 +9 1023.4 1023.0 -3.3
09 13.01 С 2 14 км ясно +1.6 -3.3 70 -1 -1 1024.9 1025.0
12 13.01 СВ 6 22 км 3/3 1500 м
[]
0.0 -3.7 76 -6 -6 1025.9 1026.0
18 13.01 В 6 19 км ?/? -0.9 -4.9 74 -8 -8 1025.2 1025.0 +4.9
21 13.01 В 7 29 км ?/? -1.2 -10.8 48 -8 -8 1026.0 1026.0
00 14.01 В 10 19 км ясно -1.4 -7.1 65 -10 -10 1027.1 1027.0
03 14.01 В 8 19 км ясно +0.9 -7.6 53 -6 -4 1027.5 1028.0
06 14.01 В 6 15 км 1/1
[]
-0.1 -5.3 68 -6 -4 1025.9 1027.5 -1.9
09 14.01 В 4 14 км 9/9
[]
-1.3 -5.2 75 -7 -7 1026.9 1027.0
12 14.01 В 5 18 км 9/9
[]
-2.4 -6.0 76 -9 -9 1028.3 1028.0
18 14.01 ЮВ 1 29 км ?/? +0.7 -7.5 54 -1 -1 1029.1 1029.0 +1.5
21 14.01 Ю 2 21 км ?/? -0.2 -6.0 65 -3 -3 1029.3 1029.0
00 15.01 В 4 19 км 3/3
[]
-1.5 -5.5 74 -7 -7 1030.4 1030.0
03 15.01 С 2 16 км ясно +3.8 -3.5 59 +1 +9 опасность
простуды
1030.0 1030.0
06 15.01 С 4 19 км 9/9
[]
+2.7 -5.4 55 -2 -1 1026.8 1027.0 -3.5
09 15.01 С 5 30 км 9/9
[]
-0.6 -7.4 60 -6 -6 1028.3 1028.0
12 15.01 С 3 30 км 4/4
[]
-1.4 -8.6 58 -6 -6 1029.6 890.6
18 15.01 С 2 30 км ?/? -2.7 -10.5 55 -6 -6 1028.7 1029.0 +6.0
21 15.01 штиль 0 30 км ?/? -0.4 -17.1 27 -0 -0 1028.8 1029.0
00 16.01 Ю 1 30 км ясно +0.1 -15.4 30 -1 0 1028.7 1029.0
03 16.01 С 2 19 км ясно +3.9 -4.6 54 +2 +10 опасность
простуды
1028.3 1028.0
06 16.01 С 2 18 км ясно +5.2 -3.1 55 +3 +10 1025.9 1026.0 -2.9
09 16.01 штиль 0 13 км 3/3
[]
+3.3 -1.3 72 +3 +3 1025.9 1026.0
12 16.01 З 1 28 км 10/10 1500 м
[]
+1.8 -5.4 59 +1 +1 1028.1 1028.0
18 16.01 С 2 14 км ?/? -0.5 -2.2 88 -4 -4 1027.6 1028.0 +6.8 0.2
21 16.01 С 1 6000 м дымка ?/? -0.6 -1.3 95 -3 -3 1027.4 1027.0
00 17.01 С 1 8000 м 10/10 1500 м
[]
+0.3 -0.4 95 -2 -2 1028.3 890.6 0.2
03 17.01 Ю 2 10 км 10/10 1500 м
[]
+1.8 +0.9 94 -2 -2 1029.1 1029.0
06 17.01 З 1 2400 м слабый дождь со снегом ?/? +1.3 +1.0 98 -1 -1 1027.2 1074.5 -0.7 0.5
09 17.01 С 2 200 м туман {снег} ?/? +0.1 0.0 99 -4 -4 1027.9 1028.0
12 17.01 В 2 7000 м слабый дождь со снегом {туман} ?/? +0.2 -0.1 98 -4 -4 1028.8 890.7 0.1
18 17.01 штиль 0 24 км ?/? +2.1 +0.8 91 +1 +1 1029.1 891.6 +2.3
21 17.01 ЮВ 2 13 км ?/? +2.1 +1.2 94 -1 -1 1028.0 1028.0
00 18.01 С 2 4700 м слабый дождь 10/10 1000 м
[]
+1.9 +1.6 98 -2 -2 1028.9 1029.0 0.9

 

Местоположение метеостанции Lu Shan (Китай): широта 29.58 долгота 115.98 высота над уровнем моря 1165 м.

В архиве по умолчанию представлена погода в Lu Shan за последнюю неделю. Архивные данные за месяц целиком и за предыдущие месяцы, начиная с января 2011 года, Вы можете получить, выбрав интересующий диапазон дат из раскрывающегося списка и нажав кнопку "Ввод!".

Внимание! Время в таблицах - всемирное. Для получения местного времени необходимо прибавить поправку, которая в Lu Shan равна 8 ч.

Ветер - указаны скорость ветра в м/с - средняя за 10 мин, порывы в срок и между сроками (в фигурных скобках) и направление, откуда дует ветер: С - северный, СВ - северо-восточный, В - восточный, ЮВ - юго-восточный, Ю - южный, ЮЗ - юго-западный, З - западный, СЗ - северо-западный.
Видимость - горизонтальная дальность видимости в метрах или километрах. При видимости от 1 до 10 км при отсутствии осадков обычно наблюдается дымка, при ухудшении видимости до 1 км и менее - туман. В сухую погоду видимость может ухудшаться дымом, пылью или мглою.
Явления - указаны атмосферные явления, наблюдавшиеся в срок или в последний час перед сроком; фигурными скобками обозначены явления, наблюдавшиеся между сроками (за 1-3 часа до срока); квадратными скобками обозначены град или гололедные отложения с указанием их диаметра в мм.
Облачность - указаны через наклонную черту общая и нижняя облачность в баллах и высота нижней границы облаков в метрах; квадратными скобками обозначены формы облаков: Ci - перистые, Cs - перисто-слоистые, Cc - перисто-кучевые, Ac - высококучевые, As - высокослоистые, Sc - слоисто-кучевые, Ns - слоисто-дождевые, Cu - кучевые, Cb - кучево-дождевые. Подробнее классификацию облаков см. в Атласе облаков (PDF).
T - Температура воздуха - температура, измеренная на высоте 2 м над землей.
Td - Температура точки росы - температура, при понижении до которой содержащийся в воздухе водяной пар достигнет насыщения.
f - Относительная влажность воздуха - влажноcть воздуха, измеренная на высоте 2 м над землей.
Te - Эффективная температура - температура, которую ощущает одетый по сезону человек в тени. Характеристика душности погоды. При расчете учитывается влияние влажности воздуха и скорости ветра на теплоощущения человека.
Tes - Эффективная температура на солнце - температура, которую ощущает человек, с поправкой на солнечный нагрев. Характеристика знойности погоды. Зависит от высоты солнца над горизонтом, облачности и скорости ветра. Ночью, в пасмурную погоду, а также при ветре 12 м/с и более поправка равна нулю.
P - Атмосферное давление - приведенное к уровню моря атмосферное давление.
Po - Атмосферное давление - измеренное на уровне метеостанции атмосферное давление.
Tmin - Минимальная температура - минимум температуры воздуха на высоте 2 м над землей.
Tmax - Максимальная температура - максимум температуры воздуха на высоте 2 м над землей.
R - Количество осадков - Количество выпавших осадков, мм. При наведении курсора мыши на число - период времени, за который выпало указанное количество осадков.
S - Снежный покров - Высота снежного покрова, см. При наведении курсора мыши на число - состояние снежного покрова и степень покрытия местности в баллах.